Weather in Demydivka

Ukraine / Poltava Region     49°33′34″N   34°11′15″E
temp.,
°C
wind,
m/s
gust,
m/s
humid.,
%
clouds,
%
prec.,
mm/h
press.,
hPa
HPBL,
m
19 may, wed
wed1900:00+13sse51095100 0.3 1002367
03:00+11se5119713 0.3 1002330
06:00+11se599741 0.0 1002295
09:00+15sse577744 0.2 1003680
12:00+19sse576055 1.1 10031787
15:00+18sse3564100 1.8 1003796
18:00+18sse2468100 0.8 1003629
21:00+13ssw2283100 1.3 100311
20 may, thu
thu2000:00+11wsw33909 0.1 100343
03:00+11w5998100 0.8 1004361
06:00+11w5995100 0.4 1005529
09:00+12w5892100 0.6 1007669
12:00+13w5781100 0.1 1009969
15:00+15w6871100 0.3 10101333
18:00+16wnw467087 0.1 1011742
21:00+11nw228744 0.1 101321
21 may, fri
fri2100:00+11nne2282100 0.0 101334
03:00+10e2283100 0.0 101422
06:00+11ene368071 0.0 1014161
09:00+13ne3676100 0.0 1015371
12:00+17ene5663100 0.0 1014915
15:00+15ne4875100 0.3 1014465
18:00+13n5988100 0.1 1015256
21:00+13ne51180100 0.1 1015277
22 may, sat
sat2200:00+13nne51184100 0.0 1015296
03:00+12nne51285100 0.0 1015274
06:00+12nne51384100 0.0 1015320
09:00+16ne7117492 0.0 1013566
12:00+19ne6869100 0.0 10151076
15:00+20ne6870100 0.0 10141156
18:00+19ne5878100 0.0 1013867
21:00+16nne379498 0.0 1013137
23 may, sun
sun2300:00+14nne3797100 0.0 1012149
03:00+13nne339764 0.0 101166
06:00+14n239684 0.0 101093
09:00+19nnw3482100 0.0 1010427
12:00+22nnw5569100 0.0 10091088
15:00+24nw4462100 0.1 10081473
18:00+21n477566 0.0 1008294
21:00+17nnw35885 0.0 100970